Время (UTC), дата Ветер
(°,м/с) 
Видим.   Явления Облачность Т
(°С)
Тd
(°С)
f(%) Тe
(°С)
Pmin
(гПа)
dP
(гПа)
Po
(мм)
O2
(г/м3)
Тmin Tmax R s Состояние
почвы
00 01.02.11 300 (СЗ) 4000 м  дымка  9/9 720 м 
[Sc]
-4.4 -6.6 85 -4  1019.7  0.5  758  311           
03 01.02.11 290 (З) 4000 м  слаб. снег  10/10 570 м 
[Sc]
-3.8 -6.4 82 -5  1019.7  758  310           
06 01.02.11 350 (С) 4000 м  слаб. ливневой снег  9/9 840 м кучево-дожд. 
[Cb calv]
-3.8 -5.5 88 -6  1020.6  0.9  758  310  -4.9    0.0     
09 01.02.11 340 (С) 10 км  в посл. час снег{ливн. осадки}  6/0 средняя 
[Ac trans]
-3.4 -9.2 64 -6  1020.3  -0.3  758  310           
12 01.02.11 320 (СЗ) 10 км  {ливн. осадки, снег}  4/0 средняя 
[Ac trans]
-4 -9.8 64 -7  1019.4  -0.9  757  311           
15 01.02.11 300 (СЗ) 10 км    5/5 630 м 
[Sc]
-5 -10.3 67 -6  1019.7  0.3  758  312           
18 01.02.11 310 (СЗ) 10 км    10/10 900 м 
[Sc]
-6.7 -10.7 73 -6  1020.2  0.4  758  314    -2.5  0.3     
21 01.02.11 240 (ЮЗ) 10 км  {снег}  9/9 700 м 
[Sc]
-6.7 -10.2 76 -6  1019.7  -0.5  758  314           
00 02.02.11 190 (Ю) 10 км  в посл. час снег  8/8 450 м 
[Sc]
-8 -9.5 89 -10  1019  -0.7  757  315           
03 02.02.11 200 (Ю) 4000 м  дымка  10/10 150 м 
[Sc]
-7.5 -8.1 95 -9  1018.7  -0.3  757  314           
06 02.02.11 210 (ЮЗ) 3000 м  в посл. час снег  8/1 600 м средняя 
[Sc|Ac trans]
-7.6 -8.2 96 -9  1019  0.3  757  315  -8.7    0.0     
09 02.02.11 230 (ЮЗ) 10 км  слаб. снег  8/4 300 м средняя, верхняя 
[Sc|Ac trans|Ci fib]
-4.4 -7.3 80 -8  1018.8  -0.1  757  311           
12 02.02.11 210 (ЮЗ) 10 км  {снег}  9/6 480 м средняя 
[Sc|Ac trans]
-3.8 -7.1 78 -5  1018.4  -0.3  757  310           
15 02.02.11 200 (Ю) 4000 м  слаб. снег  10/10 480 м 
[Sc]
-4.8 -6 91 -6  1018.9  0.5  757  311           
18 02.02.11 тихо ()   2000 м  дымка{снег}  9/5 480 м средняя 
[Sc|Ac trans]
-7.3 -7.9 95 -7  1020.2  1.2  758  315    -3.1  0.2     
21 02.02.11 070 (В) 0100 м  туман [диам. изморози 1 мм]  ?/?  
-8.6 -9.1 96 -10  1021.1  0.8  758  317           
00 03.02.11 тихо ()   0400 м  туман  ?/?  
-11.5 -11.7 98 -12  1021.9  0.7  759  320           
03 03.02.11 120 (ЮВ) 0100 м  переохл. туман [диам. изморози 3 мм]  ?/?  
-8.2 -8.3 99 -8  1022.2  0.4  759  316           
06 03.02.11 090 (В) 2000 м  в посл. час туман [диам. изморози 14 мм]  9/9 30 м 
[St]
-12.5 -13.7 91 -12  1022.9  0.6  760  322  -12.5         
09 03.02.11 090 (В) 4000 м  дымка{туман} [диам. изморози 8 мм]  8/5 150 м средняя 
[St|Ac trans]
-8.9 -9.7 94 -11  1022.5  -0.3  760  317           
12 03.02.11 тихо ()   4000 м  слаб. снег{туман} [диам. изморози 6 мм]  10/5 800 м средняя 
[Sc|Ac und]
-5.4 -5.9 96 -5  1021.3  -1  759  313           
15 03.02.11 100 (В) 4000 м  дымка{снег}  10/10 660 м 
[Sc]
-5.8 -6.4 95 -7  1021.2  -0.2  759  313           
18 03.02.11 170 (Ю) 4000 м  дымка{снег}  10/10 660 м 
[Sc]
-4.5 -5.9 90 -6  1020.8  -0.3  758  311    -5.3  0.0     
21 03.02.11 240 (ЮЗ) 2000 м  снег  10/10 120 м 
[Sc]
-4.7 -5.2 96 -6  1021  0.2  759  312           
00 04.02.11 тихо ()   0500 м  туман{снег}  10/10 150 м 
[Sc]
-6.7 -6.9 99 -7  1020.3  -0.8  758  314           
03 04.02.11 070 (В) 0100 м  переохл. туман{снег} [диам. изморози 2 мм]  ?/?  
-6.1 -6.1 100 -8  1020  -0.3  758  313           
06 04.02.11 тихо ()   0200 м  переохл. туман{снег} [диам. изморози 9 мм]  ?/?  
-5.7 -6 98 -6  1021.4  1.4  759  313  -7.1       
09 04.02.11 200 (Ю) 4000 м  в посл. час морось{снег, туман} [диам. изморози 8 мм]  10/10 210 м 
[St]
-4.3 -4.8 96 -6  1021.1  -0.2  759  311           
12 04.02.11 290 (З) 4000 м  дымка{снег, туман} [диам. изморози 0 мм]  5/5 400 м 
[Sc]
-2.9 -4.9 86 -6  1020.3  -0.7  758  309           
15 04.02.11 260 (З) 3000 м  дымка  10/10 180 м 
[Sc]
-4.5 -5.3 94 -8  1020.8  0.4  758  311           
18 04.02.11 230 (ЮЗ) 3000 м  дымка  10/8 180 м средняя 
[Sc|Ac und]
-5.5 -6.2 95 -8  1020.2  -0.6  758  312    -2.7  0.0     
21 04.02.11 250 (З) 4000 м  слаб. снег  10/10 210 м 
[Sc]
-2.9 -3.5 96 -7  1018.7  -1.4  757  309           
00 05.02.11 270 (З) 4000 м  в посл. час снег  10/10 180 м 
[Sc]
-2.3 -3 95 -6  1017.4  -1.3  756  308           
03 05.02.11 270 (З) 2000 м  дымка  10/10 120 м 
[St]
-1.7 -2.2 96 -5  1017.3  -0.1  756  307           
06 05.02.11 250 (З) 1500 м  дымка  10/10 100 м 
[St]
-1.3 -1.6 98 -6  1016.1  -1.1  755  306  -5.5    0.3     
09 05.02.11 240 (ЮЗ) 4000 м  дымка  10/8 300 м средняя 
[Sc|Ac und]
+0.7 -1.1 88 -3  1013.8  -2.3  753  303           
12 05.02.11 230 (ЮЗ) 12-16{16}  1100 м  снег  10/8 120 м средняя 
[Sc|Ac und]
+0.6 +0.3 98 -5  1007.9  -5.8  749  301           
15 05.02.11 250 (З) 11-15{17}  0600 м  ливневой снег  ?/?  
+0.4 +0.3 99 -5  1005.6  -2.3  747  301           
18 05.02.11 270 (З) 12-17{19}  3000 м  в посл. час ливневой снег  10/8 120 м кучево-дожд., средняя 
[Cb calv|Ac und]
+0.9 +0.3 96 -4  1004.2  -1.4  746  300    +1.1     
21 05.02.11 260 (З) 11-15{16}  2500 м  слаб. ливневой дождь  10/8 150 м кучево-дожд., средняя 
[Cb calv|Ac und]
+0.8 +0.3 96 -4  1003.2  -0.9  745  299           
00 06.02.11 260 (З) 10{16}  1500 м  слаб. ливневой снег{туман}  10/8 120 м кучево-дожд., средняя 
[Cb calv|Ac und]
+0.8 +0.6 99 -4  1000.9  -2.2  744  299           
03 06.02.11 260 (З) 10-15{16}  3000 м  дымка{ливн. осадки}  10/8 120 м кучево-дожд., средняя 
[Cb calv|Ac und]
+1.5 +0.9 96 -3  999.2  -1.7  743  297           
06 06.02.11 260 (З) 10-15{16}  3000 м  слаб. ливневой дождь  10/8 120 м кучево-дожд., средняя 
[Cb calv|As op]
+1.8 +1.1 95 -3  998.9  -0.3  742  297  +0.4       
09 06.02.11 270 (З) 8{15}  4000 м  в посл. час ливневой дождь  9/5 240 м кучево-дожд., средняя 
[Cb calv|Ac trans]
+2.8 +1.1 88 -1  999.2  0.4  743  296           
12 06.02.11 290 (З) 10-15{15}  10 км  {ливн. осадки}  9/4 400 м средняя 
[Sc|Ac trans]
+4.7 -1.3 65 +1  1000.7  1.5  744  295           
15 06.02.11 280 (З) 10 км    8/3 600 м средняя 
[Sc|Ac trans]
+3.5 -0.7 74 1003.3  2.4  746  297           
18 06.02.11 290 (З) 10 км    3/0 средняя 
[Ac trans]
+2.9 -0.9 76 1004.8  1.5  747  298    +5.3  0.5     
21 06.02.11 280 (З) 10 км    3/0 средняя 
[Ac trans]
+2.1 -2.5 72 -1  1006.1  1.3  748  299           
00 07.02.11 280 (З) 10 км    5/0 средняя 
[Ac trans]
+1 -2.9 75 -2  1008.8  2.6  750  301           
03 07.02.11 290 (З) 10 км    6/0 средняя 
[Ac trans]
-0.2 -3.2 80 -3  1011.3  2.4  751  303           
06 07.02.11 280 (З) 10 км    1/0 средняя 
[Ac trans]
+0.1 -3.4 77 -3  1013.6  2.3  753  304  -0.5         
09 07.02.11 320 (СЗ) 10 км    9/9 800 м 
[Sc]
+1 -4.6 66 -3  1015  1.4  754  303           
12 07.02.11 270 (З) 10 км    9/6 900 м средняя 
[Sc|Ac trans]
+2.3 -3.5 65 -1  1015  0.1  754  302           
15 07.02.11 270 (З) 10 км    8/8 930 м 
[Sc]
+1.4 -2.4 76 -1  1015.7  0.6  755  303           
18 07.02.11 270 (З) 10 км    1/1 200 м 
[St]
-0.5 -1.5 93 -2  1015.8  0.1  755  305    +2.4       
21 07.02.11 270 (З) 2000 м  дымка  8/8 60 м 
[St]
-1.2 -1.6 97 -3  1015.8  755  306           
00 08.02.11 290 (З) 0800 м  туман  ?/?  
-1.5 -1.6 99 -2  1016  0.1  755  306           
03 08.02.11 240 (ЮЗ) 3000 м  в посл. час туман  3/3 200 м 
[St]
-2.6 -2.7 99 -2  1016.7  0.7  755  308           
06 08.02.11 220 (ЮЗ) 2000 м  дымка{туман}  8/8 180 м 
[Sc]
-2.6 -2.8 98 -2  1017.6  0.9  756  308  -4.9         
09 08.02.11 290 (З) 10 км    9/6 750 м средняя 
[Sc|Ac trans]
+0.6 -4.1 71 1017.6  0.1  756  304           
12 08.02.11 300 (СЗ) 10 км    10/6 700 м средняя 
[Sc|Ac und]
+0.6 -3.7 73 -1  1016.7  -0.9  755  304           
15 08.02.11 240 (ЮЗ) 10 км    10/10 630 м 
[Sc]
+0.1 -3.2 79 -2  1015.8  -1  755  304           
18 08.02.11 180 (Ю) 4000 м  дымка  10/10 330 м 
[Sc]
+0.1 -1.7 88 -2  1013.7  -1.9  753  304    +0.8       
21 08.02.11 230 (ЮЗ) 0500 м  туман{дождь}  ?/?  
+0.7 +0.6 99 -2  1009.9  -3.5  750  301           
00 09.02.11 230 (ЮЗ) 4000 м  в посл. час дождь{туман}  10/10 120 м 
[Sc]
+3.3 +2.8 97 +1  1005.8  -4  747  297           
03 09.02.11 260 (З) 12-18{18}  4000 м  дымка  10/10 150 м 
[St]
+3.8 +2.8 93 -1  1003.1  -2.5  746  296           
06 09.02.11 260 (З) 1000 м  дымка  10/10 100 м 
[St]
+1.8 +1.4 97 -2  1003  -0.2  745  298  -0.1    0.0     
09 09.02.11 280 (З) 4000 м  дымка{туман}  9/5 300 м средняя 
[Sc|Ac trans]
+3.7 +0.5 80 +1  1001.6  -1.3  744  296           
12 09.02.11 290 (З) 10 км  {туман}  6/3 300 м средняя 
[Sc|Ac trans]
+4.8 -2.2 60 +1  1001.5  -0.1  744  295           
15 09.02.11 270 (З) 10 км    9/9 700 м 
[Sc]
+3.1 -4.5 57 1003.6  746  298           
18 09.02.11 260 (З) 10 км    6/3 600 м средняя 
[Sc|Ac trans]
+1.9 -2.7 72 -1  1004.3  0.7  746  299    +5.3       
21 09.02.11 270 (З) 10 км    5/0 средняя 
[Ac trans]
+0.8 -2.1 81 -2  1004.5  0.1  746  300           
00 10.02.11 270 (З) 10 км    3/0 средняя 
[Ac trans]
+0.3 -2.8 80 -3  1004.9  0.4  747  301           
03 10.02.11 270 (З) 10 км    4/0 верхняя 
[Ci fib]
-0.8 -2.7 87 -4  1005.4  0.5  747  302           
06 10.02.11 270 (З) 10 км    6/0 средняя 
[Ac trans]
-0.2 -2.6 84 -3  1006.2  0.8  748  302  -0.9         
09 10.02.11 290 (З) 10 км  в посл. час снег  9/5 360 м кучево-дожд., средняя 
[Cb calv|Ac trans]
+1.2 -2.5 76 -2  1005.7  -0.5  747  300           
12 10.02.11 290 (З) 10 км  {снег}  8/4 300 м кучево-дожд., средняя 
[Cb calv|Ac trans]
+2.1 -3.3 67 -1  1006.1  0.5  748  299           
15 10.02.11 300 (СЗ) 10 км  {ливн. осадки}  9/6 900 м кучево-дожд., средняя 
[Cb calv|Ac trans]
+0.4 -7.1 57 -3  1008.1  1.9  749  302           
18 10.02.11 330 (СЗ) 10 км  в посл. час ливневой снег  9/5 400 м кучево-дожд., средняя 
[Cb calv|Ac trans]
-1.1 -5.3 73 -4  1010.6  2.4  751  304    +2.4  0.0     
21 10.02.11 340 (С) 3000 м  слаб. ливневой снег  10/8 180 м кучево-дожд., средняя 
[Cb calv|Ac und]
-3.7 -4.8 92 -6  1012.4  1.7  752  308           
00 11.02.11 320 (СЗ) 10 км  {ливн. осадки}  8/5 180 м кучево-дожд., средняя 
[Cb calv|Ac und]
-5.9 -11.3 65 -10  1014.4  1.9  754  311           
03 11.02.11 290 (З) 10 км    4/3 300 м средняя 
[Sc|Ac trans]
-7 -10.6 75 -10  1016.5  755  313           
06 11.02.11 300 (СЗ) 10 км    9/0 средняя 
[Ac trans]
-6.6 -10.8 72 -9  1018.3  1.8  756  313  -7.1    0.7     
09 11.02.11 290 (З) 10 км    6/6 570 м 
[Sc]
-4.4 -10.2 64 -7  1018.5  0.3  757  311           
12 11.02.11 300 (СЗ) 4000 м  слаб. ливневой снег  8/8 800 м кучево-дожд. 
[Cb calv]
-3.9 -8.5 70 -6  1018.4  -0.1  757  310           
15 11.02.11 260 (З) 10 км  {ливн. осадки}  6/6 800 м 
[Sc]
-4.5 -10.5 63 -8  1018.5  0.1  757  311           
18 11.02.11 260 (З) 10 км  {ливн. осадки}  8/5 750 м кучево-дожд., средняя 
[Cb calv|Ac trans]
-5 -8.8 75 -9  1018  -0.5  756  311    -3.3  0.0     
21 11.02.11 220 (ЮЗ) 10 км    9/6 400 м кучево-дожд., средняя 
[Cb calv|Ac trans]
-5.3 -8.7 77 -8  1016.1  -1.8  755  311           
00 12.02.11 200 (Ю) 10 км    9/5 720 м кучево-дожд., средняя 
[Cb calv|Ac trans]
-5.5 -8.1 82 -9  1013.7  -2.4  753  311           
03 12.02.11 140 (ЮВ) 10 км  в посл. час снег{ливн. осадки}  10/3 200 м средняя 
[Sc|As op]
-5.1 -6.8 88 -8  1009.6  -4  750  309           
06 12.02.11 150 (ЮВ) 0700 м  ливневой снег  ?/?  
-3.7 -4.3 95 -7  1006.2  -3.3  748  306  -6.1    0.3     
09 12.02.11 170 (Ю) 3000 м  слаб. ливневой снег  10/8 150 м кучево-дожд., средняя 
[Cb calv|As op]
-0.5 -0.8 98 -4  1002  -4.1  745  301           
12 12.02.11 190 (Ю) 10 км  в посл. час дождь{ливн. осадки} [диам. гололёда 0 мм]  10/10 400 м 
[Sc]
+1.1 +0 92 -2  998.7  -3.1  742  298           
15 12.02.11 190 (Ю) 3000 м  слаб. дождь со снегом{ливн. осадки}  10/10 120 м 
[Frnb|Ns]
+1.3 +1 98 -3  994.9  -3.8  739  296           
18 12.02.11 200 (Ю) 4000 м  слаб. дождь{ливн. осадки, снег}  10/10 150 м 
[Cu med, cong]
+2.2 +1.6 96 -2  990.3  -4.5  736  294    +1.5     
21 12.02.11 250 (З) 13-17{19}  3000 м  слаб. дождь{ливн. осадки, снег}  10/10 180 м 
[Cu med, cong]
+0.9 +0 94 -4  990.1  -0.2  736  295           
00 13.02.11 260 (З) 12-16{19}  10 км  в посл. час снег{ливн. осадки}  10/10 180 м 
[Cu med, cong]
+0.7 -0.7 90 -5  992.8  2.6  738  297           
03 13.02.11 260 (З) 10-16{18}  10 км  слаб. снег  10/8 240 м средняя 
[Sc|As op]
-3.9 -7.4 77 -10  996.1  740  303           
06 13.02.11 270 (З) 10-16{19}  3000 м  снег  10/10 180 м 
[Sc]
-5.7 -7.6 86 -12  997.6  1.5  741  306  -6       
09 13.02.11 280 (З) 10-15{18}  0700 м  ливневой снег  ?/?  
-6.7 -8.9 84 -13  1001.2  3.5  744  308           
12 13.02.11 270 (З) 10-15{18}  0800 м  ливневой снег  ?/?  
-7.4 -10.4 79 -14  1004  2.7  746  310           
15 13.02.11 280 (З) 8-16{16}  4000 м  метель{ливн. осадки}  9/6 700 м кучево-дожд., средняя 
[Cb calv|Ac trans]
-8.1 -12.7 70 -14  1007  748  312           
18 13.02.11 270 (З) 12-17{17}  4000 м  слаб. ливневой снег  8/8 750 м кучево-дожд. 
[Cb calv]
-8.1 -13.3 66 -16  1008.3  1.3  749  312    -3.9     
21 13.02.11 270 (З) 10-15{17}  3000 м  слаб. ливневой снег  9/9 210 м кучево-дожд. 
[Cb calv]
-9.1 -12.3 78 -16  1009.1  0.7  750  314           
00 14.02.11 280 (З) 9-15{17}  10 км  позёмок{ливн. осадки}  4/4 300 м кучево-дожд. 
[Cb calv]
-9.9 -14.7 68 -17  1009.6  0.5  750  315           
03 14.02.11 270 (З) 9{15}  10 км    6/6 700 м кучево-дожд. 
[Cb calv]
-9.9 -14.4 70 -17  1009.6  750  315           
06 14.02.11 270 (З) 8{15}  10 км  {ливн. осадки}  5/4 200 м средняя 
[Sc|Ac trans]
-9.8 -14.7 67 -16  1010  0.4  750  315  -10.2    0.2     
09 14.02.11 270 (З) 10-15{15}  10 км    6/6 630 м 
[Sc]
-8 -13.9 62 -15  1009.2  -0.7  750  312           
12 14.02.11 260 (З) 9-15{15}  10 км  слаб. снег  9/9 700 м 
[Sc]
-7.9 -13.5 64 -14  1008.5  -0.7  749  312           
15 14.02.11 290 (З) 9{15}  10 км  {снег}  6/6 700 м 
[Sc]
-8.8 -14.9 61 -15  1009.1  0.4  750  313           
18 14.02.11 300 (СЗ) 7{15}  10 км  в посл. час снег  8/8 500 м 
[Sc]
-10.9 -15.5 69 -17  1009.7  0.6  750  316    -7.4  0.0     
21 14.02.11 300 (СЗ) 10 км  {ливн. осадки, снег}  5/5 540 м 
[Sc]
-13.3 -17.1 73 -19  1010.6  0.8  751  319           
00 15.02.11 300 (СЗ) 10 км  {ливн. осадки, снег}  ясно 
-13.9 -16.8 79 -17  1011.5  0.8  751  320           
03 15.02.11 310 (СЗ) 10 км    ясно 
-14.6 -17.4 79 -18  1011.7  0.2  751  321           
06 15.02.11 310 (СЗ) 10 км    ясно 
-14 -17.1 77 -18  1012.9  1.2  752  321  -14.8    0.0     
09 15.02.11 310 (СЗ) 10 км    ясно 
-10 -14.3 71 -14  1012.7  752  316           
12 15.02.11 330 (СЗ) 10 км    4/4 600 м 
[Sc]
-8.8 -13.3 70 -12  1012.2  -0.5  752  314           
15 15.02.11 350 (С) 10 км    4/4 600 м 
[Sc]
-9.4 -13.6 71 -9  1013.3  1.1  753  315           
18 15.02.11 360 (С) 10 км    3/3 300 м 
[Sc]
-11.5 -15.1 75 -13  1014.6  1.2  754  318    -8.4       
21 15.02.11 350 (С) 10 км    3/3 300 м 
[Sc]
-12.6 -15.6 78 -15  1015.8  754  320           
00 16.02.11 тихо ()   10 км    5/0 средняя 
[Ac trans]
-13.2 -16.2 78 -13  1016.6  0.8  755  321           
03 16.02.11 330 (СЗ) 10 км    6/0 верхняя 
[Ci fib]
-13.2 -16 79 -15  1017.5  0.9  756  321           
06 16.02.11 350 (С) 10 км  ледяные иглы{снег}  4/0 верхняя 
[Ci fib]
-15.1 -18 78 -20  1019.1  1.5  757  324  -15.1         
09 16.02.11 350 (С) 10 км  {снег}  ясно 
-12.3 -17.5 65 -16  1020.5  1.5  758  321           
12 16.02.11 350 (С) 10 км  {снег}  1/0 верхняя 
[Ci fib]
-11.6 -19.9 50 -16  1021.7  1.2  759  321           
15 16.02.11 340 (С) 10 км    3/0 верхняя 
[Ci fib]
-12.3 -19.5 55 -16  1023.1  1.4  760  322           
18 16.02.11 тихо ()   10 км    3/0 верхняя 
[Ci fib]
-14.6 -19.9 64 -15  1024.6  1.4  761  325    -11.1  0.0     
21 16.02.11 310 (СЗ) 10 км    4/0 верхняя 
[Ci fib]
-14.2 -19 67 -16  1025.1  0.5  761  325           
00 17.02.11 320 (СЗ) 10 км    ясно 
-15.4 -20.1 67 -18  1025.6  0.4  762  327           
03 17.02.11 320 (СЗ) 10 км    ясно 
-16 -19.6 74 -18  1025.7  0.1  762  328           
06 17.02.11 280 (З) 10 км    ясно 
-13.4 -17.6 71 -16  1025.8  0.2  762  324  -17.7         
09 17.02.11 320 (СЗ) 10 км    1/0 верхняя 
[Ci fib]
-9.9 -15.5 63 -13  1025.7  762  320           
12 17.02.11 280 (З) 10 км    ясно 
-7.7 -14.1 60 -10  1025  -0.6  761  317           
15 17.02.11 300 (СЗ) 10 км    ясно 
-8.1 -13.9 63 -10  1025.3  0.3  762  318           
18 17.02.11 310 (СЗ) 10 км    ясно 
-9.1 -13.5 70 -11  1025.9  0.6  762  319    -7.4       
21 17.02.11 350 (С) 10 км    ясно 
-12 -15.9 73 -14  1026.8  0.7  763  323           
00 18.02.11 тихо ()   10 км    ясно 
-13.8 -16.9 77 -14  1027.5  0.7  763  325           
03 18.02.11 350 (С) 10 км    ясно 
-14.6 -17 82 -17  1027.9  0.3  763  326           
06 18.02.11 030 (СВ) 10 км    ясно 
-13.4 -16.6 77 -17  1028.3  0.5  764  325  -15.3         
09 18.02.11 080 (В) 10 км    ясно 
-10.3 -16.1 62 -12  1028.3  0.1  764  321           
12 18.02.11 060 (СВ) 10 км    1/0 средняя 
[Ac trans]
-8.5 -15.3 58 -10  1027.6  -0.6  763  319           
15 18.02.11 040 (СВ) 10 км    1/0 средняя 
[Ac trans]
-10.6 -16.6 61 -14  1027.4  -0.3  763  321           
18 18.02.11 060 (СВ) 10 км    ясно 
-14.1 -17 79 -18  1028.1  0.6  764  326    -8.3       
21 18.02.11 080 (В) 10 км    ясно 
-14.4 -16.7 83 -20  1027.8  -0.4  763  326           
00 19.02.11 070 (В) 10 км    ясно 
-15.3 -17.6 83 -21  1026.7  -1.1  762  327           
03 19.02.11 080 (В) 10 км    ясно 
-16.5 -18.6 83 -21  1026.1  -0.6  762  328           
06 19.02.11 090 (В) 10 км    3/0 верхняя 
[Ci fib]
-15.6 -17.8 83 -21  1026  -0.1  762  327  -17.3         
09 19.02.11 090 (В) 10 км    ясно 
-11.2 -15.2 72 -17  1024.2  -1.6  761  321           
12 19.02.11 070 (В) 10 км    ясно 
-8.4 -13.8 65 -14  1022.4  -1.7  759  317           
15 19.02.11 060 (СВ) 10 км    3/0 верхняя 
[Ci fib]
-11.6 -15.8 71 -18  1022.2  -0.3  759  321           
18 19.02.11 070 (В) 10 км    3/3 300 м 
[Sc]
-13.7 -16.7 78 -21  1021.8  -0.4  759  323    -8.3       
21 19.02.11 070 (В) 10 км    ясно 
-14.6 -17 82 -22  1020.8  -1  758  324           
00 20.02.11 060 (СВ) 10 км    3/0 верхняя 
[Ci fib]
-15.4 -18 81 -22  1020.1  -0.7  758  325           
03 20.02.11 070 (В) 10 км    3/0 верхняя 
[Ci fib]
-15.6 -18.6 77 -23  1019.9  -0.2  757  325           
06 20.02.11 060 (СВ) 10 км    5/0 средняя, верхняя 
[Ac trans|Ci fib]
-15 -18.6 74 -23  1020.4  0.5  758  325  -16.3         
09 20.02.11 060 (СВ) 10  10 км    3/0 средняя, верхняя 
[Ac trans|Ci fib]
-10 -15.1 66 -17  1020  -0.2  758  318           
12 20.02.11 050 (СВ) 10 км    9/4 600 м средняя 
[Sc|Ac As]
-9.8 -14.4 69 -17  1019.6  -0.4  757  318           
15 20.02.11 060 (СВ) 10 км    9/5 1050 м средняя 
[Sc|Ac trans]
-10.9 -15.1 71 -17  1020.8  1.1  758  320           
18 20.02.11 070 (В) 10 км    9/6 1000 м средняя 
[Sc|Ac trans]
-12.4 -15.9 75 -20  1022.4  1.6  759  322    -9       
21 20.02.11 070 (В) 10 км    10/6 1000 м средняя 
[Sc|Ac trans]
-13.4 -16.8 76 -21  1022.6  0.1  759  323           
00 21.02.11 060 (СВ) 10 км    10/6 1000 м средняя 
[Sc|Ac trans]
-14.1 -17.6 75 -21  1022.8  0.2  760  324           
03 21.02.11 070 (В) 10  10 км    10/6 1000 м средняя 
[Sc|Ac und]
-15.3 -18.7 75 -24  1024.1  1.2  761  326           
06 21.02.11 070 (В) 10 км    9/4 1000 м средняя 
[Sc|Ac trans]
-14.8 -18.1 76 -23  1025.6  1.6  762  326  -15.7         
09 21.02.11 080 (В) 10  10 км    6/3 1000 м средняя, верхняя 
[Sc|Ac trans|Ci fib]
-10.6 -15.9 65 -18  1025.9  0.4  762  321           
12 21.02.11 090 (В) 10  10 км    6/0 средняя, верхняя 
[Ac trans|Ci fib]
-8.8 -14.7 62 -16  1025.7  -0.1  762  319           
15 21.02.11 070 (В) 9{15}  10 км    5/0 верхняя 
[Ci fib]
-11.1 -15 73 -18  1027.6  1.8  763  322           
18 21.02.11 080 (В) 11{15}  10 км    5/0 верхняя 
[Ci fib]
-13.5 -16 81 -22  1028.9  1.2  764  325    -8.6       
21 21.02.11 080 (В) 10  10 км    3/0 верхняя 
[Ci fib]
-14.9 -17.2 82 -23  1029.8  0.8  765  327           
00 22.02.11 080 (В) 11  10 км    ясно 
-16.6 -19 82 -26  1030.5  0.6  765  330           
03 22.02.11 080 (В) 10-15{16}  10 км    6/0 верхняя 
[Ci fib]
-17.3 -19.9 80 -26  1031.1  0.6  766  331           
06 22.02.11 080 (В) 12-15{15}  10 км    4/0 верхняя 
[Ci fib]
-16.2 -20 72 -26  1031.5  0.4  766  330  -17.6         
09 22.02.11 090 (В) 12-15{16}  10 км    6/0 верхняя 
[Ci fib]
-10.1 -16.4 60 -18  1030.9  -0.3  766  322           
12 22.02.11 090 (В) 14-18{18}  10 км    6/0 верхняя 
[Ci fib]
-7.7 -14.5 58 -16  1029.3  -1.5  765  318           
15 22.02.11 090 (В) 15-18{18}  10 км    6/0 средняя, верхняя 
[Ac trans|Ci fib]
-9.9 -15.4 64 -19  1029.7  0.3  765  321           
18 22.02.11 090 (В) 12-15{19}  10 км    5/0 верхняя 
[Ci fib]
-11.8 -16.4 69 -20  1030.4  0.6  765  324    -7.4       
21 22.02.11 090 (В) 13-17{18}  10 км    6/0 средняя 
[Ac trans]
-12 -17.5 64 -21  1030  -0.4  765  324           
00 23.02.11 090 (В) 13-16{18}  10 км    4/0 средняя 
[Ac trans]
-13.3 -17.7 70 -22  1030  765  326           
03 23.02.11 090 (В) 13-16{16}  10 км    8/5 540 м средняя 
[Sc|Ac trans]
-14.4 -18.1 73 -24  1030.3  0.2  765  327           
06 23.02.11 090 (В) 14-17{18}  10 км  слаб. снег  10/6 300 м средняя 
[Sc|Ac und]
-14.1 -17 79 -24  1031.2  0.9  766  327  -14.4         
09 23.02.11 090 (В) 14-17{17}  10 км  в посл. час снег  10/6 360 м средняя 
[Sc|Ac und]
-10.6 -14.1 75 -19  1030.5  -0.5  765  322           
12 23.02.11 080 (В) 12-18{19}  10 км  {снег}  10/6 540 м средняя 
[Sc|Ac und]
-7.7 -12 71 -15  1030  -0.4  765  318           
15 23.02.11 090 (В) 15-19{19}  10 км    10/6 840 м средняя 
[Sc|Ac und]
-7.2 -13 63 -15  1030  765  318           
18 23.02.11 090 (В) 13-18{20}  10 км    10/6 900 м средняя 
[Sc|Ac und]
-7.4 -14.7 56 -15  1030.4  0.3  765  318    -7.2  0.0     
21 23.02.11 090 (В) 10-16{19}  10 км    9/9 900 м 
[Sc]
-9 -14.1 66 -16  1030.3  -0.2  765  320           
00 24.02.11 090 (В) 11-15{19}  10 км    9/9 500 м 
[Sc]
-9.7 -13.5 74 -17  1030.5  0.2  765  321           
03 24.02.11 080 (В) 13  10 км    9/9 300 м средняя, верхняя 
[St|As trans|Ci sp]
-10.4 -12.8 83 -19  1030.4  -0.1  765  322           
06 24.02.11 090 (В) 11-15{17}  4000 м  снежные зёрна  10/10 240 м 
[St]
-9.7 -12 83 -17  1031.1  0.7  766  321  -10.8         
09 24.02.11 080 (В) 12-16{18}  10 км  в посл. час снег  10/5 450 м средняя 
[Sc|Ac und]
-7.4 -10.8 77 -15  1031  -0.1  766  318           
12 24.02.11 080 (В) 14-17{18}  10 км  {снег}  10/4 300 м средняя 
[Sc|Ac und]
-5.7 -8.6 80 -13  1030.6  -0.3  766  316           
15 24.02.11 100 (В) 11-16{17}  10 км    10/10 630 м 
[Sc]
-4.5 -8.9 71 -11  1031.2  0.6  766  315           
18 24.02.11 080 (В) 14-19{19}  10 км    10/10 800 м 
[Sc]
-7.3 -12.8 65 -15  1031.1  -0.2  766  318    -4.5  0.0     
21 24.02.11 080 (В) 12-15{19}  10 км    10/10 800 м 
[Sc]
-8.1 -13.2 67 -16  1031.2  0.1  766  319           
00 25.02.11 080 (В) 13-16{19}  10 км    10/10 500 м 
[Sc]
-9.7 -13.5 74 -18  1031.6  0.3  766  321           
03 25.02.11 080 (В) 12-16{17}  3000 м  слаб. снег  10/10 210 м 
[Sc]
-12.1 -14.3 84 -21  1031.9  0.2  766  324           
06 25.02.11 080 (В) 14-17{17}  4000 м  позёмок{снег}  10/8 210 м средняя 
[Sc|Ac und]
-12.2 -14.5 83 -21  1032.1  0.2  767  325  -12.5    0.0     
09 25.02.11 070 (В) 13-17{18}  3000 м  слаб. снег  10/8 300 м средняя 
[Sc|Ac und]
-10.4 -13.2 80 -19  1031.5  -0.5  766  322           
12 25.02.11 070 (В) 12-18{18}  10 км  {снег}  10/5 700 м средняя 
[Sc|Ac und]
-7.9 -11.4 76 -15  1030.8  -0.6  766  319           
15 25.02.11 080 (В) 13-18{20}  10 км    10/8 570 м средняя 
[Sc|Ac und]
-8.5 -12.5 73 -16  1031  0.1  766  320           
18 25.02.11 080 (В) 15-19{20}  10 км    10/10 630 м 
[Sc]
-9.3 -14.3 67 -18  1031.1  0.1  766  321    -7.9  0.0     
21 25.02.11 080 (В) 13-16{19}  10 км    10/10 630 м 
[Sc]
-9.6 -14.4 68 -18  1030.6  -0.5  766  321           
00 26.02.11 080 (В) 13-17{19}  10 км    10/10 480 м 
[Sc]
-10.2 -13.5 77 -19  1029.8  -0.8  765  321           
03 26.02.11 080 (В) 13-17{18}  2500 м  снежные зёрна  10/10 150 м 
[St]
-12.3 -14.6 83 -21  1029.6  -0.2  765  324           
06 26.02.11 080 (В) 14-17{18}  2000 м  снег  10/8 180 м средняя 
[Frnb|As op]
-12.1 -14.2 84 -21  1029.3  -0.3  764  324  -12.7    0.0     
09 26.02.11 080 (В) 16-20{20}  10 км  позёмок{снег}  10/10 210 м 
[Sc]
-8.5 -11.9 76 -17  1028.2  -0.9  764  319           
12 26.02.11 080 (В) 16-20{20}  10 км  позёмок{снег}  10/8 450 м средняя 
[Sc|Ac und]
-7 -10.8 74 -15  1026.5  -1.7  763  316           
15 26.02.11 080 (В) 14-18{20}  10 км    10/6 800 м средняя 
[Sc|Ac und]
-5.2 -12.4 57 -12  1026.5  0.1  763  314           
18 26.02.11 070 (В) 14-18{20}  10 км    10/8 800 м средняя 
[Sc|Ac und]
-7.2 -12.1 68 -15  1027  0.4  763  317    -4.7  0.0     
21 26.02.11 080 (В) 14-17{18}  10 км    9/9 630 м 
[Sc]
-8.7 -14.3 64 -17  1027.2  0.2  763  319           
00 27.02.11 080 (В) 12-16{18}  10 км    10/10 700 м 
[Sc]
-10.7 -14.7 72 -19  1027.4  0.1  763  321           
03 27.02.11 070 (В) 13-16{17}  4000 м  слаб. снег  10/10 210 м 
[Sc]
-12.7 -15.8 77 -22  1028.3  0.8  764  324           
06 27.02.11 070 (В) 13-17{18}  3000 м  слаб. снег  10/8 180 м средняя 
[Sc|As op]
-13.8 -16.4 81 -23  1029.3  764  326  -13.9    0.0     
09 27.02.11 080 (В) 12-17{17}  4000 м  слаб. снег  10/8 270 м средняя 
[Sc|As op]
-10.4 -13.5 78 -18  1028.9  -0.3  764  321           
12 27.02.11 070 (В) 14-18{18}  10 км  {снег}  9/5 630 м средняя 
[Sc|Ac trans]
-7.2 -11.7 70 -15  1028.6  -0.2  764  317           
15 27.02.11 070 (В) 10-15{18}  10 км    9/0 средняя, верхняя 
[Ac trans|Ci fib]
-6.7 -11.3 70 -13  1029.6  765  317           
18 27.02.11 080 (В) 11-15{18}  10 км    9/6 800 м средняя 
[Sc|Ac trans]
-7.4 -11.3 74 -14  1030  0.4  765  318    -6.7  0.0     
21 27.02.11 080 (В) 12-15{15}  10 км    8/4 600 м средняя 
[Sc|Ac trans]
-8.6 -12.6 73 -16  1029.8  -0.3  765  319           
00 28.02.11 080 (В) 11-15{15}  10 км    9/9 800 м 
[Sc]
-9.2 -12.5 77 -17  1030.1  0.3  765  320           
03 28.02.11 080 (В) 12-15{15}  10 км    9/9 240 м 
[Sc]
-10.9 -13.4 82 -19  1030.6  0.5  766  323           
06 28.02.11 080 (В) 11-15{15}  3000 м  слаб. снег  10/8 150 м средняя 
[Sc|Ac und]
-11.5 -13.6 84 -19  1031.6  0.9  766  324  -12.3         
09 28.02.11 080 (В) 11-15{15}  10 км  {ливн. осадки, снег}  10/4 300 м средняя 
[Sc|Ac und]
-8.4 -11.8 76 -16  1031.3  -0.2  766  320           
12 28.02.11 080 (В) 10{15}  10 км  {ливн. осадки, снег}  10/4 300 м средняя 
[Sc|Ac und]
-5 -9.2 72 -11  1030.4  -0.7  766  315           
15 28.02.11 080 (В) 10-15{15}  10 км    10/3 600 м средняя 
[Sc|Ac und]
-4.4 -9.3 69 -10  1030.1  -0.3  765  314           
18 28.02.11 080 (В) 10-15{15}  10 км    10/5 750 м средняя 
[Sc|Ac und]
-4.7 -10.3 65 -11  1030.7  0.6  766  315    -4.4  0.0     
21 28.02.11 080 (В) 10{15}  10 км    10/6 750 м средняя 
[Sc|Ac und]
-6.6 -12.3 64 -13  1030.6  -0.2  766  317           
00 01.03.11 080 (В) 10{15}  10 км    8/3 600 м средняя 
[Sc|Ac trans]
-7.9 -13 67 -15  1031.1  0.5  766  319           
03 01.03.11 080 (В) 10  10 км    9/5 480 м средняя 
[Sc|Ac trans]
-9.4 -13.3 73 -17  1031.5  0.3  766  321           
06 01.03.11 080 (В) 10  10 км    9/5 630 м средняя 
[Sc|Ac trans]
-10.5 -14 76 -18  1032.5  767  323  -10.8         
09 01.03.11 070 (В) 10  10 км    9/0 средняя 
[Ac trans]
-7.7 -12.4 69 -14  1032.7  0.3  767  319           
12 01.03.11 070 (В) 10  10 км    6/0 средняя, верхняя 
[Ac trans|Ci fib]
-3.4 -10.8 57 -9  1031.4  -1.2  766  314           
15 01.03.11 080 (В) 10 км    8/0 средняя, верхняя 
[Ac trans|Ci fib]
-4.3 -10.8 61 -10  1031.4  766  315           
18 01.03.11 080 (В) 10 км    4/0 средняя 
[Ac trans]
-6 -10.2 72 -12  1032.1  0.6  767  317    -3.1       
21 01.03.11 080 (В) 10 км    8/0 средняя 
[Ac trans]
-6.9 -10.6 75 -13  1032.1  767  318           
00 02.03.11 080 (В) 10 км    6/0 средняя 
[Ac trans]
-8.6 -11.7 78 -14  1031.6  -0.6  766  320           
03 02.03.11 070 (В) 10 км    8/0 средняя 
[Ac trans]
-9.7 -13 77 -16  1031.9  0.3  767  321           
06 02.03.11 060 (СВ) 10 км    9/0 средняя 
[Ac trans]
-9 -13.3 71 -15  1032.9  767  321  -10         
09 02.03.11 050 (СВ) 10 км    9/0 средняя 
[Ac trans]
-6.5 -12.1 64 -11  1032.8  767  318           
12 02.03.11 060 (СВ) 10 км    9/0 средняя 
[Ac trans]
-4.5 -11.6 58 -9  1032.4  -0.3  767  315           
15 02.03.11 060 (СВ) 10 км    3/0 средняя 
[Ac trans]
-6.3 -11.7 65 -11  1033.2  0.7  768  318           
18 02.03.11 050 (СВ) 10 км    3/0 средняя 
[Ac trans]
-9.5 -12.9 76 -13  1034.6  1.3  769  322    -3.9       
21 02.03.11 060 (СВ) 10 км    1/0 средняя 
[Ac trans]
-10.9 -13.3 82 -15  1034.7  -0.1  768  324           
00 03.03.11 020 (С) 10 км    4/0 средняя 
[Ac trans]
-12 -14.4 82 -15  1035  0.4  769  325           
03 03.03.11 тихо ()   10 км    4/0 средняя 
[Ac trans]
-14.3 -16 87 -14  1034.8  -0.3  769  328           
06 03.03.11 150 (ЮВ) 10 км    3/0 средняя 
[Ac trans]
-9.3 -13.4 72 -9  1034.5  -0.1  768  322  -14.3         
09 03.03.11 250 (З) 10 км    3/0 средняя 
[Ac trans]
-4 -13.2 49 -6  1033  -1.3  767  315           
12 03.03.11 260 (З) 10 км    6/0 средняя, верхняя 
[Ac trans|Ci fib]
-2.1 -12.4 45 -5  1030.8  -2.1  766  312           
15 03.03.11 270 (З) 10 км    9/0 средняя 
[Ac trans]
-3.7 -9.3 65 -5  1029.8  -1.1  765  313           
18 03.03.11 360 (С) 10 км    9/3 300 м средняя 
[Sc|Ac trans]
-3.7 -8.8 68 -5  1029.8  765  313    -2.1       
21 03.03.11 350 (С) 10 км    5/3 300 м средняя 
[Sc|Ac trans]
-6.8 -9 84 -8  1029.8  -0.1  765  317           
00 04.03.11 320 (СЗ) 10 км    5/0 средняя 
[Ac trans]
-9 -10.9 86 -11  1029.6  -0.3  765  320           
03 04.03.11 310 (СЗ) 4000 м  дымка  6/0 средняя 
[Ac trans]
-9.2 -10.8 88 -11  1029.6  765  320           
Время (UTC), дата Ветер
(°,м/с) 
Видим.   Явления Облачность Т
(°С)
Тd
(°С)
f(%) Тe
(°С)
Pmin
(гПа)
dP
(гПа)
Po
(мм)
O2
(г/м3)
Тmin Tmax R s Состояние
почвы